Regional Weather Roundup
Issued by NWS Wilmington, NC

Home | Current Version | Previous Version | Text Only | Print | Product List | Glossary On
Versions: 1 2 3 4 5 6 7 8 9 10 11 12 13 14 15 16 17 18 19 20 21 22 23 24 25 26 27 28 29 30 31 32 33 34 35 36 37 38 39 40 41 42 43 44 45 46 47 48 49 50
000
ASUS42 KILM 230210
RWRILM
RWRILM
REGIONAL HOURLY WEATHER ROUNDUP
NATIONAL WEATHER SERVICE WILMINGTON NC
1000 PM EDT MON SEP 22 2014

NOTE: "FAIR" INDICATES FEW OR NO CLOUDS BELOW 12,000 FEET WITH NO
SIGNIFICANT WEATHER AND/OR OBSTRUCTIONS TO VISIBILITY.

...............WFO WILMINGTON COUNTY WARNING AREA...............

......COASTAL NC AND SC COUNTIES......

CITY           SKY/WX    TMP DP  RH WIND       PRES   REMARKS
WILMINGTON     LGT RAIN  69  66  90 CALM      30.10S
SOUTHPORT      LGT RAIN  65  63  91 N5        30.10S
N MYRTLE BEACH CLOUDY    68  65  90 N5        30.09R
MYRTLE BEACH   CLOUDY    68  64  88 N8        30.09S

......INLAND NC AND SC COUNTIES.......

CITY           SKY/WX    TMP DP  RH WIND       PRES   REMARKS
LUMBERTON      CLOUDY    66  63  90 NE6       30.10F
ELIZABETHTOWN  DRIZZLE   68  60  73 CALM      30.12R
WHITEVILLE     CLOUDY    67  64  87 CALM      30.10R
FLORENCE       CLOUDY    67  63  87 N7        30.10R
DARLINGTON     CLOUDY    64  59  82 N7        30.13S

....................REST OF NORTH CAROLINA......................

.........EASTERN NC.........

CITY           SKY/WX    TMP DP  RH WIND       PRES   REMARKS
CAPE HATTERAS  CLEAR     68  61  78 NE6       30.11R
JACKSONVILLE   CLOUDY    66  63  88 CALM      30.11R
MOREHEAD CITY  MOCLDY    70  65  84 NE5       30.11R
KENANSVILLE    CLOUDY    69  58  68 NW3       30.12S
NEW BERN       MOCLDY    69  64  84 CALM      30.12R
ELIZABETH CITY MOCLDY    68  59  73 N6        30.13R

.........CENTRAL NC.........

CITY           SKY/WX    TMP DP  RH WIND       PRES   REMARKS
RALEIGH DURHAM CLOUDY    63  58  83 CALM      30.15R
ROCKY MOUNT    CLOUDY    66  59  78 CALM      30.13R
ROANOKE RAPIDS NOT AVBL
FAYETTEVILLE   CLOUDY    66  62  87 NE6       30.12R
HOFFMAN        MOCLDY    68  54  60 N2        30.14R

.........WESTERN NC.........

CITY           SKY/WX    TMP DP  RH WIND       PRES   REMARKS
CHARLOTTE      CLOUDY    68  55  63 E5        30.15R
GREENSBORO     MOCLDY    63  53  70 N6        30.15S
HICKORY        NOT AVBL
BOONE          NOT AVBL
ASHEVILLE      NOT AVBL

.....................REST OF SOUTH CAROLINA.....................

.........EASTERN SC.........

CITY           SKY/WX    TMP DP  RH WIND       PRES   REMARKS
CHARLESTON     CLOUDY    70  67  90 N5        30.08R
BEAUFORT MCAS  CLOUDY    70  67  90 W8        30.10R
HILTON HEAD    NOT AVBL

.........CENTRAL SC.........

CITY           SKY/WX    TMP DP  RH WIND       PRES   REMARKS
COLUMBIA       CLOUDY    68  62  81 E3        30.10R
ORANGEBURG     LGT RAIN  65  61  87 NE3       30.11R
SUMTER SHAW    LGT RAIN  64  63  94 NE7       30.10R

.........WESTERN SC.........

CITY           SKY/WX    TMP DP  RH WIND       PRES   REMARKS
GREENVILLE     NOT AVBL
ROCK HILL      CLOUDY    64  60  87 E3        30.15R
ANDERSON       MOCLDY    65  60  84 CALM      30.13R
CLEMSON        NOT AVBL
GREENWOOD      MOCLDY    64  60  87 CALM      30.13R


...................COASTAL AND OFFSHORE REPORTS..................

................LOCAL PIERS AND NC RESERVE................


STATION/POSITION TIME  SKY/WX   TEMP    WIND        PRES    VSBY
                                AIR SEA DIR/SP/G
                 (UTC)          (F)     (DEG/KT/KT) (MB)    (MI)
JOHNY MRCER PIER 0200            71 80  330/  1/  3 1018.6S
NC RESRV MASNBRO 0100            71     250/  2     1018.0S
OCEAN CREST PIER 0200            67 79  310/  5/  6 1018.2S
SPRINGMAID  PIER 0200            68 78  360/  7/  9 1018.7F


................COASTAL AND OFFSHORE BUOYS................


STATION/POSITION TIME  SKY/WX   TEMP    WIND        PRES    VSBY
                                AIR SEA DIR/SP/G
                 (UTC)          (F)     (DEG/KT/KT) (MB)    (MI)
DIMNDSHOAL 41025 0200            74     360/ 14/ 16 1018.9R
WVE H/P(F/S)=  4/ 8 WND WVE H/P(F/S)=  3/ 5 SWL H/P/D(F/S/D)=  2/130/ 8

CAPE LOOKOUT     0100            74      20/  8/ 10 1018.6R
ONSLOW BAY 41036 0100            77 82   30/ 10/ 12 1018.0R
5 WRITEBCH 41038 0100            71 79  280/  2/  2   N/A
MASONBORO  41110 0200               79                N/A
WVE H/P(F/S)=  2/ 7 WND WVE H/P(F/S)=  2/ 7

WILM HARBR 41108 0200               79                N/A
WVE H/P(F/S)=  2/ 7 WND WVE H/P(F/S)=  2/ 7

27WRITEBCH 41037 0100            70 80   10/  8/ 10 1018.5R
FRYING PAN 41013 NOT AVBL
SUNST NRSH 41024 0100            70      40/  6/  8 1018.6R
CAPRS NRSH 41029 0100            73      50/ 10/ 12   N/A
EDISTO     41004 0200            77 82   20/ 16/ 17 1017.4R
WVE H/P(F/S)=  3/ 7 WND WVE H/P(F/S)=  3/ 4 SWL H/P/D(F/S/D)=  2/ 7



..........OFFSHORE BUOYS BEYOND 100 NM OFFSHORE...........
.....IN A TRIANGLE---HAT TO BERMUDA TO BAHAMAS TO HAT.....


STATION/POSITION TIME  SKY/WX   TEMP    WIND        PRES    VSBY
                                AIR SEA DIR/SP/G
                 (UTC)          (F)     (DEG/KT/KT) (MB)    (MI)
150E HAT   41001 NOT AVBL
W BERMUDA  41048 0148            81 81  180/  8/ 10 1018.9S
WVE H/P(F/S)=  5/ 7 WND WVE H/P(F/S)=  2/ 3 SWL H/P/D(F/S/D)=  5/270/ 7

ATLANTIC S 41049 0145            83 85   90/ 16/ 17 1019.8F
WVE H/P(F/S)=  6/ 8 WND WVE H/P(F/S)=  3/ 7 SWL H/P/D(F/S/D)=  5/110/ 8

E BAHAMAS  41046 0108            84 84   80/ 16/ 17 1016.6
WVE H/P(F/S)=  5/ 8 WND WVE H/P(F/S)=  3/ 5 SWL H/P/D(F/S/D)=  3/110/ 8

NE BAHAMAS 41047 0123            83 84  110/  8/ 10 1018.6R
WVE H/P(F/S)=  4/ 7 WND WVE H/P(F/S)=  2/ 4 SWL H/P/D(F/S/D)=  3/ 50/ 7

120E CANVRL41010 0200            81 84  170/  4/  6 1017.2R
WVE H/P(F/S)=  3/ 7 WND WVE H/P(F/S)=  2/ 3 SWL H/P/D(F/S/D)=  3/ 70/ 7


END


USA.gov is the U.S. government's official web portal to all federal, state and local government web resources and services.